Hourly Data Report for July 28, 2021

KITCHENER/WATERLOO
ONTARIO
Current Station Operator: NAVCAN

43°27'39.000" N
80°22'43.000" W
321.60 m
6144239
71368
YKF

Download Data

Hourly Data (July 2021)
Hourly Data Report for July 28, 2021
TIME
LST
Temp Definition
°C
Dew Point Definition
°C
Rel Hum Definition
%
Precip. Amount Definition
mm

Wind Dir Definition
10's deg

Wind Spd Definition
km/h
Visibility Definition
km
Stn Press Definition
kPa
Hmdx Definition


Wind Chill Definition


Weather Definition


00:00 15.4 15.1 98 0.0 32 4 6.4 97.92     Fog
01:00 15.3 15.0 98 0.0 LegendMM 4 14.5 97.92     LegendNANA
02:00 13.9 13.6 98 0.0 36 4 4.8 97.92     Fog
03:00 14.0 13.7 98 0.0 36 8 9.7 97.96     Fog
04:00 13.8 13.5 98 0.0 4 8 9.7 97.97     Fog
05:00 14.8 14.5 98 0.0 LegendMM 4 0.6 98.01     Fog
06:00 16.5 16.2 98 0.2 7 9 0.2 98.07     Fog
07:00 17.3 17.0 98 0.0 9 9 0.6 98.12     Fog
08:00 18.7 18.4 98 0.0 8 15 4.8 98.12     Fog
09:00 20.6 17.6 83 0.0 7 11 14.5 98.11 26   LegendNANA
10:00 22.3 17.3 73 0.0 9 11 16.1 98.07 28   LegendNANA
11:00 23.5 16.9 66 0.0 13 9 16.1 98.06 29   LegendNANA
12:00 24.6 16.0 58 0.0 11 11 16.1 98.05 29   LegendNANA
13:00 24.3 15.3 57 0.0 14 11 12.9 98.05 28   LegendNANA
14:00 23.3 15.2 60 0.0 12 9 16.1 98.03 27   LegendNANA
15:00 25.0 13.7 49 0.0 11 13 16.1 97.95 28   LegendNANA
16:00 25.2 13.0 46 0.0 14 15 16.1 97.91 28   LegendNANA
17:00 24.6 13.4 49 0.0 14 17 16.1 97.90 28   LegendNANA
18:00 23.2 12.0 49 0.0 13 17 16.1 97.89 25   LegendNANA
19:00 20.6 14.2 66 0.0 11 9 16.1 97.90     LegendNANA
20:00 18.7 11.9 64 0.0 12 9 16.1 97.86     LegendNANA
21:00 17.1 11.0 67 0.0 10 9 16.1 97.89     LegendNANA
22:00 15.5 11.9 79 0.0   0 16.1 97.88     LegendNANA
23:00 14.1 12.5 90 0.0 LegendMM 4 16.1 97.82     LegendNANA

Notes on Data Quality.

Legend

  • E = Estimated
  • M = Missing
  • NA = Not Available*
  • [empty] = Indicates an unobserved value
Date modified: